Location: Suburban Lights Observatory
(43.1572°N, 89.2764°W)
Time: 11:29:24
(UTC-06:00)

Daily predictions for brighter satellites

Satellite Brightness Start Highest point End
(mag) Time Altitude Azimuth Time Altitude Azimuth Time Altitude Azimuth
USA 215 4.4 17:57:19 10° NE 18:03:11 37° NNW 18:09:02 10° W
Cosmos 1975 Rocket 3.1 18:01:18 10° N 18:05:39 86° W 18:09:57 10° S
SKYMED 2 3.6 18:03:15 10° NNE 18:07:37 81° ESE 18:11:57 10° S
NOSS 2-2 (D) 3.8 18:05:02 10° SW 18:09:04 71° NW 18:13:49 10° NNE
Cosmos 1633 4.0 18:10:00 10° SE 18:12:34 18° E 18:15:09 10° NE
CZ-4 R/B 4.4 18:12:11 10° SW 18:15:26 22° W 18:18:45 10° NW
FREGAT/IRIS 3.2 18:15:14 10° SE 18:18:06 36° ENE 18:20:59 10° N
ASTRO F (AKARI) 4.5 18:14:51 10° NNE 18:18:28 68° E 18:21:54 10° S
ALOS 2.9 18:16:41 10° SE 18:20:53 34° ENE 18:25:07 10° N
Cosmos 1536 Rocket 3.8 18:20:09 10° N 18:24:29 47° ENE 18:28:48 10° SSE
Cosmos 2333 Rocket 4.1 18:22:59 10° NNE 18:24:48 11° NE 18:26:36 10° ENE
NOSS 2-2 (C) 4.4 18:22:24 10° WSW 18:26:23 49° NW 18:31:03 10° NNE
Meteor 1-18 Rocket 4.3 18:21:44 10° N 18:27:19 87° W 18:32:55 10° S
Cosmos 1818 3.8 18:22:53 10° SSW 18:28:08 52° ESE 18:33:27 10° NE
SL-16 R/B 2.3 18:25:40 10° NNW 18:31:22 82° WSW 18:37:01 10° SSE
Nadezhda 1 Rocket 4.1 18:27:06 10° N 18:33:13 78° W 18:39:15 10° S
SJ-6B 2.8 18:30:21 10° SSE 18:34:20 66° ENE 18:38:16 10° N
DNEPR-1 R/B 3.6 18:30:35 10° NW 18:34:51 77° WSW 18:39:06 10° SSE
ATLAS CENTAUR R/B 4.2 18:34:20 10° NW 18:35:48 11° NW 18:37:15 10° NNW
FengYun 1-2 T 4.4 18:31:19 10° SE 18:36:35 51° ENE 18:41:53 10° N
TSX-5 3.8 18:33:49 10° S 18:36:45 34° ESE 18:39:05 14° NE
Resurs 01 Rocket 2.0 18:36:11 10° SE 18:40:18 40° ENE 18:44:26 10° N
Cosmos 1340 2.8 18:36:53 10° N 18:40:35 49° ENE 18:44:16 10° SSE
Meteor 1-19 Rocket 4.5 18:36:14 10° N 18:41:42 47° ENE 18:47:12 10° SSE
Cosmos 407 Rocket 3.5 18:36:32 10° SSW 18:41:46 87° ESE 18:47:07 10° NNE
Cosmos 1238 Rocket 2.6 18:39:13 10° N 18:42:05 35° ENE 18:44:49 10° SSE
Gbstr 26 Del rocket 4.1 18:40:05 10° S 18:42:59 21° SE 18:43:56 19° ESE
Cosmos 676 Rocket 3.9 18:38:48 10° S 18:43:54 64° ESE 18:49:04 10° NNE
DELTA 2 R/B (1) 4.0 18:38:48 10° W 18:44:19 57° S 18:48:38 16° ESE
Meteor 1-20 Rocket 4.5 18:39:25 10° SSW 18:45:14 79° W 18:51:08 10° N
Cosmos 2181 Rocket 4.0 18:41:13 10° N 18:47:23 61° E 18:53:37 10° SSE
Cosmos 2322 Rocket 2.9 18:43:43 10° NNW 18:49:13 57° WSW 18:54:42 10° S
Tiangong 2 2.2 18:50:01 10° W 18:52:53 35° SSW 18:54:34 19° SE
Genesis I 4.3 18:52:50 10° NNW 18:56:14 27° NE 18:56:54 25° ENE
Meteor 1-13 Rocket 4.1 18:50:43 10° N 18:56:16 71° ENE 19:01:52 10° SSE
Cosmos 1300 Rocket 3.6 18:52:30 10° S 18:56:49 58° E 19:01:12 10° NNE
Cosmos 1536 3.3 18:55:35 10° SSE 18:59:13 35° E 19:02:52 10° NNE
Cosmos 2322 3.7 18:56:19 10° NNW 19:02:02 65° ENE 19:07:31 11° SE
Resurs 1-3 3.6 18:58:40 10° SSE 19:02:57 58° ENE 19:07:17 10° N
Okean 1 4.3 19:00:00 10° NNW 19:03:56 49° W 19:07:52 10° SSW
CZ-2D R/B 3.5 19:03:05 26° SE 19:04:50 45° ENE 19:08:31 10° N
FENGYUN 3A 3.6 19:00:50 10° SSE 19:06:15 90° NNE 19:11:43 10° NNW
Cosmos 1140 Rocket 3.4 19:01:51 10° S 19:06:54 62° ESE 19:12:00 10° NNE
Cosmos 2074 Rocket 4.3 19:01:34 10° SSE 19:07:23 43° E 19:13:16 10° NNE
Cosmos 1461 4.2 19:03:50 10° NW 19:07:36 39° WSW 19:11:26 10° S
Meteor 1-23 Rocket 4.5 19:02:28 10° N 19:08:04 46° ENE 19:12:58 13° SE
Cosmos 2184 Rocket 4.3 19:02:14 10° SSE 19:08:06 42° E 19:13:57 10° NNE
Cosmos 1709 Rocket 4.0 19:01:54 10° S 19:08:09 83° W 19:14:21 10° N
USA 186 4.2 19:10:59 11° NNE 19:10:59 11° NNE 19:11:13 10° N
SL-19 R/B 4.3 19:04:18 10° SSE 19:09:56 85° ENE 19:15:57 10° NNW
Cosmos 2208 Rocket 4.4 19:04:50 10° N 19:10:05 45° ENE 19:12:31 28° ESE
H-2A R/B 2.5 19:10:23 10° SSE 19:14:04 80° ENE 19:17:49 10° N
COSMOS 2428 3.0 19:09:34 10° NNW 19:15:01 45° ENE 19:16:58 33° ESE
Cosmos 2237 4.3 19:09:57 10° NNW 19:15:37 56° ENE 19:18:32 28° SE
Meteor 2-4 Rocket 3.6 19:10:20 10° N 19:15:54 64° ENE 19:21:17 10° SSE
Spot 2 Rocket 3.4 19:11:17 10° SSE 19:16:20 90° ENE 19:21:26 10° NNW
SAR-Lupe-1 4.2 19:16:53 51° ENE 19:16:53 51° ENE 19:20:16 10° N
Cosmos 614 Rocket 3.9 19:14:16 10° S 19:19:16 60° ESE 19:24:16 10° NNE
SAR-Lupe-4 3.4 19:20:40 57° SE 19:21:15 71° ENE 19:24:50 10° N
Helios 1A 2.9 19:21:30 44° SE 19:22:35 60° ENE 19:26:42 10° N
Cosmos 2237 Rocket 3.6 19:20:03 10° N 19:23:53 21° NE 19:23:53 21° NE
Cosmos 1850 Rocket 4.0 19:20:32 10° S 19:25:42 58° ESE 19:30:57 10° NNE
Okean 1 Rocket 3.1 19:23:14 10° S 19:27:43 85° W 19:32:14 10° N
USA 229 DEB 4.0 19:22:55 10° NNW 19:29:51 51° NE 19:32:15 37° E
USA 229 4.0 19:23:02 10° NNW 19:29:57 50° NE 19:32:19 37° E
Meteor 1-11 Rocket 3.9 19:26:37 10° SSW 19:32:23 76° W 19:38:19 10° N
Envisat 3.4 19:33:04 41° NE 19:33:04 41° NE 19:37:23 10° N
Cosmos 2285 Rocket 4.2 19:26:40 10° NNW 19:32:57 51° ENE 19:34:37 41° ESE
GEOS 3 Rocket 3.9 19:28:16 12° NNE 19:33:06 66° NW 19:38:19 10° SW
Cosmos 2219 3.2 19:33:45 10° S 19:39:23 59° ESE 19:41:02 43° NE
Cosmos 2360 Rocket 2.8 19:35:52 10° NNW 19:41:24 56° WSW 19:46:55 10° S
Helios 1B rocket 3.6 19:44:11 33° S 19:44:11 33° S 19:46:30 10° SSW
ERS-1 Rocket 4.4 19:45:34 24° NNE 19:45:34 24° NNE 19:47:58 10° N
Cosmos 2219 Rocket 2.6 19:39:16 10° NNW 19:44:09 42° NE 19:44:09 42° NE
Okean 1-7 Rocket 3.9 19:40:55 10° NNW 19:45:27 68° W 19:48:12 23° S
Cosmos 1025 Rocket 3.2 19:51:02 10° NNW 19:55:24 70° W 19:55:30 70° WSW
SL-16 R/B 4.2 19:52:24 10° N 19:54:14 15° NNE 19:54:14 15° NNE
ALOS 4.4 19:54:30 10° SSW 19:58:22 25° W 20:02:15 10° NW
Meteor 2-13 Rocket 4.2 19:56:27 10° S 20:02:29 74° E 20:08:33 10° NNE
NOSS 3-1 (C) 4.4 19:56:12 10° NNW 20:03:12 43° NE 20:03:46 42° NE
Cosmos 2333 Rocket 2.8 20:04:45 10° NNW 20:09:02 45° NNE 20:09:02 45° NNE
BREEZE-M DEB (TANK) 3.5 20:09:34 10° WNW 20:12:05 47° SW 20:12:05 47° SW
Resurs 01 Rocket 4.2 20:13:43 10° SW 20:16:56 20° W 20:20:09 10° NW
NOSS 0 Rocket 4.2 20:14:14 10° NNW 20:19:14 56° N 20:19:14 56° N
COSMOS 2428 4.4 20:54:16 10° NW 20:59:02 28° WSW 20:59:04 28° WSW
Cosmos 2237 Rocket 4.0 21:03:15 10° NNW 21:05:44 27° NNW 21:05:44 27° NNW
Cosmos 2219 Rocket 4.4 21:23:37 10° NW 21:25:54 21° WNW 21:25:54 21° WNW
ATLAS 2AS CENTAUR R/B 4.4 21:32:22 10° NNW 21:36:51 30° N 21:36:51 30° N
